Find Kosmos-1234

NORAD ID: 12113 Int'l Des: 1980-102 Owner: GUKOSR Country: SU operational
LEOCIRCULAR

当前视图

正在加载3D地球...

关于 Kosmos-1234

正在加载描述...

即将过境

Passes for default location (London). Set your location on the main map for personalized predictions.

高度历史

Loading altitude history...

两行轨道根数

1 12113U 80102G 26151.10888770 .00000012 00000-0 17156-3 0 9999
2 12113 73.9960 30.5283 0034655 99.9351 54.6212 12.56712872 84175
Epoch: May 31, 2026 • Age: 7 hours

当前状态

高度 1420.8 km
速度 7.17 km/s
星下点 65.38°N, 132.47°E
发射日期 Dec 23, 1980
运行时间 45.4 years
类型 other

技术详情

分类 Payload
质量 60.00 kg
干质量 60.00 kg
总质量 60.00 kg
长度 0.80 m
直径 0.80 m
跨度 0.80 m
形状 Poly
制造商 NPOPM
平台类型 Strela-1 11F625
阶段状态 In Orbit
所有者/国家 GUKOSR/SU

Most Searched